SCP
0 0 0 0 0 0 0 0 0 0 0 0 0 0 0 0 0 0 0 0 0 0 0 0 0 0 0 0 0 0 0 0 0 0 0 0 0 0 0 0 0 0 0
0 0 0 0 0 0 0 0 0 0 0 0 0 0 0 0 0 0 0 0 0 0 0 0 0 0 0 0 0 0 0 0 0 0 0 0 0 0 0 0 0 0 0
0 0 0 0 0 0 0 0 0 0 0 0 0 0 0 0 0 0 0 0 0 0 0 0 0 0 0 0 0 0 0 0 0 0 0 0 0 0 0 0 0 0 0
0 0 0 0 0 0 0 0 0 0 0 0 0 0 0 0 0 0 0 0 0 0 0 0 0 0 0 0 0 0 0 0 0 0 0 0 0 0 0 0 0 0 0
0 0 0 0 0 0 0 0 0 0 0 0 0 0 0 0 0 0 0 0 0 0 0 0 0 0 0 0 0 0 0 0 0 0 0 0 0 0 0 0 0 0 0
0 0 0 0 0 0 0 0 0 0 0 0 0 0 0 0 0 0 0 0 0 0 0 0 0 0 0 0 0 0 0 0 0 0 0 0 0 0 0 0 0 0 0
0 0 0 0 0 0 0 0 0 0 0 0 0 0 0 0 0 0 0 0 0 0 0 0 0 0 0 0 0 0 0 0 0 0 0 0 0 0 0 0 0 0 0
0 0 0 0 0 0 0 0 0 0 0 0 0 0 0 0 0 0 0 0 0 0 0 0 0 0 0 0 0 0 0 0 0 0 0 0 0 0 0 0 0 0 0
0 0 0 0 0 0 0 0 0 0 0 0 0 0 0 0 0 0 0 0 0 0 0 0 0 0 0 0 0 0 0 0 0 0 0 0 0 0 0 0 0 0 0
0 0 0 0 0 0 0 0 0 0 0 0 0 0 0 0 0 0 0 0 0 0 0 0 0 0 0 0 0 0 0 0 0 0 0 0 0 0 0 0 0 0 0
0 0 0 0 0 0 0 0 0 0 0 0 0 0 0 0 0 0 0 0 0 0 0 0 0 0 0 0 0 0 0 0 0 0 0 0 0 0 0 0 0 0 0
0 0 0 0 0 0 0 0 0 0 0 0 0 0 0 0 0 0 0 0 0 0 0 0 0 0 0 0 0 0 0 0 0 0 0 0 0 0 0 0 0 0 0
0 0 0 0 0 0 0 0 0 0 0 0 0 0 0 0 0 0 0 0 0 0 0 0 0 0 0 0 0 0 0 0 0 0 0 0 0 0 0 0 0 0 0
0 0 0 0 0 0 0 0 0 0 0 0 0 0 0 0 0 0 0 0 0 0 0 0 0 0 0 0 0 0 0 0 0 0 0 0 0 0 0 0 0 0 0
0 0 0 0 0 0 0 0 0 0 0 0 0 0 0 0 0 0 0 0 0 0 0 0 0 0 0 0 0 0 0 0 0 0 0 0 0 0 0 0 0 0 0
0 0 0 0 0 0 0 0 0 0 0 0 0 0 0 0 0 0 0 0 0 0 0 0 0 0 0 0 0 0 0 0 0 0 0 0 0 0 0 0 0 0 0
0 0 0 0 0 0 0 0 0 0 0 0 0 0 0 0 0 0 0 0 0 0 0 0 0 0 0 0 0 0 0 0 0 0 0 0 0 0 0 0 0 0 0
0 0 0 0 0 0 0 0 0 0 0 0 0 0 0 0 0 0 0 0 0 0 0 0 0 0 0 0 0 0 0 0 0 0 0 0 0 0 0 0 0 0 0
0 0 0 0 0 0 0 0 0 0 0 0 0 0 0 0 0 0 0 0 0 0 0 0 0 0 0 0 0 0 0 0 0 0 0 0 0 0 0 0 0 0 0
0 0 0 0 0 0 0 0 0 0 0 0 0 0 0 0 0 0 0 0 0 0 0 0 0 0 0 0 0 0 0 0 0 0 0 0 0 0 0 0 0 0 0
0 0 0 0 0 0 0 0 0 0 0 0 0 0 0 0 0 0 0 0 0 0 0 0 0 0 0 0 0 0 0 0 0 0 0 0 0 0 0 0 0 0 0
0 0 0 0 0 0 0 0 0 0 0 0 0 0 0 0 0 0 0 0 0 0 0 0 0 0 0 0 0 0 0 0 0 0 0 0 0 0 0 0 0 0 0
0 0 0 0 0 0 0 0 0 0 0 0 0 0 0 0 0 0 0 0 0 0 0 0 0 0 0 0 0 0 0 0 0 0 0 0 0 0 0 0 0 0 0
0 0 0 0 0 0 0 0 0 0 0 0 0 0 0 0 0 0 0 0 0 0 0 0 0 0 0 0 0 0 0 0 0 0 0 0 0 0 0 0 0 0 0
0 0 0 0 0 0 0 0 0 0 0 0 0 0 0 0 0 0 0 0 0 0 0 0 0 0 0 0 0 0 0 0 0 0 0 0 0 0 0 0 0 0 0
0 0 0 0 0 0 0 0 0 0 0 0 0 0 0 0 0 0 0 0 0 0 0 0 0 0 0 0 0 0 0 0 0 0 0 0 0 0 0 0 0 0 0
Wind_Speed
6 9 10 10 10 10 10 9 9 9 9 9 9 9 9 9 9 10 10 9 9 9 10 10 10 11 11 11 11 11 11 11 11 11 11 11 11 11 11 11 10 7 11
8 10 9 9 10 10 10 9 9 9 9 9 9 9 9 9 9 10 10 9 9 10 10 10 11 11 11 11 11 11 11 10 10 10 10 9 10 10 11 10 10 7 11
9 10 8 8 9 10 9 9 9 9 9 9 8 8 8 8 9 10 9 9 10 10 11 11 11 11 11 11 10 10 10 9 8 7 7 4 6 10 10 10 10 10 10
8 9 8 8 8 9 9 9 9 9 9 8 8 8 8 8 9 9 9 10 10 11 11 11 11 10 10 10 9 9 8 7 6 6 4 4 5 9 10 10 9 9 10
6 7 8 8 7 8 8 9 8 8 9 8 8 8 8 8 9 9 10 10 10 10 10 10 10 10 9 9 8 8 7 7 6 5 4 4 4 8 9 9 9 9 9
6 7 8 8 8 8 8 8 8 8 9 8 8 8 8 8 9 9 9 10 10 10 9 10 9 9 9 8 8 7 6 6 5 3 4 4 4 7 8 8 8 8 8
5 6 8 8 8 7 8 8 8 8 8 8 8 8 8 9 9 9 9 9 9 9 9 9 8 8 8 7 7 6 6 6 3 4 4 4 5 7 6 6 6 6 6
5 5 7 7 7 7 7 7 7 7 7 7 7 8 9 9 8 9 9 9 8 8 8 8 7 7 7 7 6 6 6 6 4 4 4 4 6 6 5 5 5 5 6
5 5 4 4 5 6 6 6 6 6 7 7 7 7 7 8 8 8 8 8 8 8 7 7 6 6 6 6 5 4 5 5 3 2 3 3 5 6 6 6 6 5 5
5 4 3 3 3 4 4 5 6 6 6 7 7 7 7 8 8 7 7 7 7 7 7 6 6 6 5 4 3 3 3 3 2 2 2 3 5 5 5 6 6 5 5
3 3 2 2 2 2 4 5 6 6 6 7 6 7 7 5 5 5 7 7 7 6 6 6 5 5 4 3 2 1 2 1 2 2 2 4 4 4 4 4 4 4 5
1 1 2 2 1 2 3 4 3 3 4 3 3 4 3 3 3 5 7 6 6 6 5 5 4 3 2 1 1 1 1 1 2 1 2 5 4 3 3 3 3 3 3
0 1 1 1 1 2 2 2 2 2 2 3 3 3 3 3 3 3 3 3 4 4 3 3 2 1 1 1 1 1 1 1 1 1 2 4 4 3 3 3 3 3 3
1 1 1 1 1 1 2 2 2 2 2 2 3 3 2 2 3 3 2 3 2 2 2 1 1 1 1 1 1 1 2 1 1 1 2 3 3 3 2 2 2 2 2
1 1 1 1 1 1 1 1 2 2 2 3 3 3 3 2 3 3 2 2 2 2 2 1 1 1 1 1 1 1 1 1 1 1 1 2 1 1 1 1 1 1 1
0 0 1 0 1 1 2 1 2 2 2 3 3 3 3 2 2 3 3 2 2 2 1 1 1 1 1 1 1 1 1 1 1 1 1 1 1 0 1 1 1 1 1
0 0 1 1 1 1 2 2 2 2 2 2 2 3 3 2 2 2 3 2 2 2 2 1 1 1 1 1 1 0 0 1 1 1 1 1 0 0 1 1 2 1 1
0 0 1 1 1 1 1 1 1 2 2 2 2 2 2 2 2 2 2 2 2 2 1 1 1 1 1 0 0 0 0 1 1 1 1 1 1 0 0 1 1 1 1
1 0 1 1 0 1 2 2 2 2 2 2 2 2 2 2 2 2 2 2 2 2 1 1 1 1 1 0 0 0 0 0 0 0 1 1 1 1 0 0 0 1 1
1 1 1 1 1 1 1 2 2 2 2 2 2 2 2 2 2 2 2 2 2 2 1 1 1 1 1 1 1 1 1 1 0 0 1 0 0 1 1 1 0 1 2
2 2 2 2 2 1 1 1 1 1 1 1 2 2 2 2 2 2 2 2 2 2 2 2 2 2 1 1 1 1 1 1 1 1 1 1 1 1 1 1 1 0 1
2 2 2 2 1 1 1 1 1 1 1 1 2 2 2 2 2 2 2 2 2 2 1 1 1 1 1 1 1 0 1 1 1 0 0 0 0 1 1 1 1 1 0
3 2 2 2 1 1 1 1 2 2 1 1 1 1 2 2 2 2 2 2 1 2 2 2 2 2 1 1 1 2 1 2 1 0 1 0 0 0 1 1 1 1 1
2 2 2 2 2 1 1 1 2 2 1 1 1 1 2 2 1 1 1 1 1 1 1 1 2 1 2 1 1 1 1 1 1 1 1 1 0 0 1 1 1 1 1
2 2 2 2 2 2 2 2 1 1 1 1 1 2 2 1 1 1 1 1 1 1 1 1 1 1 1 1 1 1 1 1 1 1 2 2 1 1 1 1 1 1 1
3 3 3 2 3 2 2 1 1 1 1 1 2 1 1 1 1 1 1 0 0 1 1 1 2 2 1 1 1 1 1 1 2 2 2 2 2 2 1 1 1 0 1
Wind_Direction
118 129 144 145 145 141 138 132 129 128 125 120 116 111 108 106 105 101 98 96 94 94 92 89 86 80 77 75 73 71 70 68 69 71 70 66 65 65 65 63 60 63 69
119 129 143 143 143 142 140 136 133 131 128 123 119 115 112 110 107 104 101 99 97 95 92 89 85 81 79 76 74 74 73 70 71 72 70 64 65 67 68 65 67 69 70
119 130 141 140 142 142 141 139 137 136 134 130 125 120 116 113 111 107 104 101 96 95 92 88 86 83 81 79 77 75 74 68 63 60 62 67 70 73 71 68 71 70 71
121 133 140 138 141 143 143 143 141 141 140 136 130 122 117 116 114 108 105 104 99 95 92 88 86 84 80 79 78 75 70 58 45 42 55 65 67 74 73 71 71 70 71
117 123 123 130 134 139 143 144 143 143 142 139 134 127 121 118 114 110 106 103 100 96 93 89 87 84 81 78 77 73 62 49 31 41 58 63 64 76 73 72 70 69 69
110 115 122 125 125 131 137 142 141 143 143 142 137 132 126 122 115 110 108 103 101 98 95 92 89 86 84 79 75 66 49 33 21 45 51 57 62 74 74 72 73 73 72
109 115 127 129 127 128 131 139 141 139 141 143 142 138 131 125 119 114 109 105 102 101 98 95 93 90 87 81 71 55 37 17 38 53 56 54 61 71 75 74 72 75 75
96 106 128 133 133 131 133 133 135 139 140 141 141 138 132 127 123 120 115 113 109 105 100 97 95 94 92 82 67 45 31 22 45 56 64 62 65 68 70 74 73 75 77
82 90 101 127 139 136 135 132 135 138 140 138 136 130 123 122 120 117 115 116 115 111 105 101 96 96 95 84 66 40 28 15 27 54 71 70 69 70 68 70 71 70 72
69 77 84 105 125 137 140 133 132 136 139 132 130 129 123 121 117 114 111 112 113 113 108 104 99 99 96 86 64 40 19 2 33 57 63 76 78 80 74 70 68 64 64
57 57 74 82 101 122 137 139 136 133 133 133 133 136 137 134 128 119 113 114 114 114 114 109 105 103 101 94 75 38 3 14 47 57 60 78 83 80 78 75 68 63 58
39 33 57 80 87 108 124 136 143 142 138 135 135 140 142 129 122 118 119 124 125 124 124 125 127 124 110 110 90 47 10 32 46 63 77 80 82 76 75 80 75 68 61
107 50 47 64 92 108 116 133 132 131 132 128 130 134 129 123 123 123 126 127 133 138 134 136 148 154 115 98 97 87 41 25 38 62 78 83 82 81 76 73 67 63 63
116 95 59 54 85 99 114 129 131 135 136 133 125 121 130 135 136 138 134 134 137 135 130 142 143 118 93 82 73 64 51 28 33 61 85 87 83 80 78 71 70 63 60
109 91 79 70 102 105 112 123 119 133 140 139 140 140 130 139 145 141 133 125 127 121 126 128 123 120 103 79 69 66 49 29 41 56 80 92 100 83 89 68 50 44 29
30 66 87 93 117 114 125 137 145 142 146 146 146 144 140 134 142 141 131 129 129 123 123 123 137 124 119 105 81 69 53 21 59 84 95 98 95 52 355 343 331 1 351
317 252 133 160 144 131 137 143 133 134 135 137 142 146 138 134 144 143 138 140 138 126 125 119 121 102 118 114 92 34 30 22 37 73 84 82 119 252 315 334 343 345 313
340 11 75 74 132 134 126 128 115 109 109 112 118 127 126 126 132 134 136 143 137 132 133 132 119 106 118 128 136 37 19 13 6 26 70 75 62 44 306 296 322 355 354
348 112 100 75 130 141 124 117 104 98 90 92 96 97 106 116 119 127 139 128 128 128 134 135 117 125 138 153 154 129 321 286 275 52 76 67 59 53 61 292 322 3 2
12 55 91 101 54 72 105 102 94 92 88 82 87 92 100 113 121 121 123 128 129 135 142 138 148 126 118 111 54 2 314 260 198 142 188 139 79 43 24 30 37 0 9
39 44 65 82 65 70 96 111 118 129 126 116 96 93 101 94 102 115 119 137 138 155 171 159 147 153 153 120 71 339 309 252 178 182 174 126 94 54 34 18 355 64 353
53 49 53 64 83 91 87 130 125 124 121 99 90 88 86 92 93 107 116 130 146 149 146 155 147 142 157 142 142 159 291 314 309 181 75 96 83 61 29 6 5 20 10
50 49 50 52 66 84 86 98 94 87 92 102 103 101 90 104 110 111 138 138 151 157 168 173 168 163 185 209 174 166 182 233 316 288 204 122 85 38 344 352 346 353 355
40 46 52 60 62 70 104 105 123 132 135 130 140 116 106 107 111 125 137 142 145 148 168 178 172 173 176 204 237 237 215 153 163 293 315 331 285 264 273 312 319 309 342
44 41 42 53 58 60 80 99 111 92 86 95 106 113 121 121 102 93 91 101 139 163 175 177 170 190 193 207 212 228 255 274 222 202 260 283 309 289 277 280 293 296 326
49 42 39 47 46 54 79 95 108 93 83 96 92 113 118 107 116 107 112 129 156 177 192 205 202 204 207 215 226 193 190 218 216 211 235 254 269 277 280 279 269 282 313